STARLINK-32472, 61846

Orbit data source: Space-Track

STARLINK-32472, 61846 is a payload satellite owned by SpaceX/Seattle (US) in LEO that was launched on Thu, 07 Nov 2024 UTC via an FALCON 9 launch vehicle from the Air Force Eastern Test Range (AFETR). Payload-class satellites include a variety of spacecraft equipped with specific instruments for various scientific and technological missions. These include communications satellites like Starlink; space stations such as the ISS; scientific satellites like the Hubble; Earth observation satellites from companies like Planet Labs, Umbra, and HawkEye 360; GPS; miniature CubeSats for education and research; and military/defense satellites.

Loading next visibility...
Identifier
61846, 2024-202B
Orbit
LEO
Country
Flag of USUS
Related business
Manufacturer
SpaceX/Seattle
Mission
Operational Commercial Communications
Bus & Motor
STARLINK V2M, Unknown motor
Mass
730 kg wet, ~700 kg dry
Launch date (UTC)
2024-11-07 (2 years ago)
Launch vehicle
FALCON 9
Launch site
Air Force Eastern Test Range (AFETR)
Object type
Payload
Rocket body
Debris
Shape & HBR
Box + 2 Pan, 17.7 m
Radar Cross Section
33.884 m², Large (>1 m²)

Expand to show TLE details & history
Last TLE update: 1 day ago

TLE from 1 day ago
0 STARLINK-32472
1 61846U 24202B   26266.17145173  .00000177  00000-0  15935-4 0  9998
2 61846  43.0009 192.0148 0000716 266.4168  93.6602 15.27578129105655
Epoch: 2026-09-23T04:06Z
TLE epoch observation values (Epoch: 2026-09-23T04:06:53.429Z)
Latitude
-0°
Longitude
128.26577°
Altitude
482.862 km
Speed
7.626 km/s
True Right ascension
12h 48m 03s
True Declination
0° 00' 00"
Sunlit
Object was in daylight at epoch
Visualization orbit readout
Latitude
Unknown
Longitude
Unknown
Altitude
Unknown
Speed
Unknown
Apparent Right ascension
Unknown
Apparent Declination
Unknown
Sunlit
N/A
Visualization observer readout
Local Sidereal Time
21:44:36
Azimuth
Unknown
Elevation
Unknown
Doppler factor
Unknown
Orbital elements
Apogee altitude
485.491 km
Perigee altitude
484.508 km
Semi-major axis
6,863.137 km
Eccentricity
0.00007
Inclination
43.0009°
RAAN
192.0148°
Arg. of periapsis
266.4168°
True anomaly
93.66839°
Mean anomaly
93.6602°
Eccentric anomaly
93.66429°
Mean motion
3.81733 °/min
Orbital period
94.31 mins
BSTAR
0.000015935
Loading maneuver chart data...
Computing Atmospheric mass density...
Loading historical data...
Loading historical data...
Loading historical data...
Loading historical data...
Loading historical data...
Loading historical data...
Loading historical data...

Documentation

Showing up to 5 results
|